Regional Weather Roundup
Issued by NWS

Home | Current Version | Previous Version | Graphics & Text | Print | Product List | Glossary On
Versions: 1 2 3 4 5 6 7 8 9 10 11 12 13 14 15 16 17 18 19 20 21 22 23 24 25 26 27 28 29 30 31 32 33 34 35 36 37 38 39 40 41 42 43 44 45 46 47 48 49 50
000
ASUS45 KTFX 041010
RWRMT
MONTANA REGIONAL WEATHER ROUNDUP
NATIONAL WEATHER SERVICE GREAT FALLS MT
300 AM MST SUN DEC 04 2016

NOTE: "FAIR" INDICATES FEW OR NO CLOUDS BELOW 12000 FEET WITH NO
SIGNIFICANT WEATHER AND/OR OBSTRUCTIONS TO VISIBILITY.

MTZ001>007-043-041100-
WEST OF THE DIVIDE

CITY           SKY/WX    TMP DP  RH WIND       PRES   REMARKS
KALISPELL      CLOUDY    35  29  78 S8        29.83F WCI  29
MISSOULA       CLOUDY    31  30  96 NE3       29.95F FOG
BUTTE          CLOUDY    30  15  53 SW8       29.92F WCI  22
MULLAN PASS    SNOW      24  22  91 VRB7      29.80F VSB 1/2 WCI  16
ANACONDA         N/A     30  18  59 S8G22     29.91F WCI  23
DEER LODGE       N/A     27  21  80 N3        29.92F
EUREKA           N/A     37  28  70 SE13G20   29.79F WCI  29
HAMILTON         N/A     36  23  60 SE13      29.95F WCI  27
LIBBY            N/A     34  32  93 SE3       29.81F
PLAINS           N/A     37  29  73 CALM      29.91
RONAN            N/A     34  28  79 CALM      29.94F
$$

MTZ008-052>055-041100-
SOUTHWEST MONTANA

CITY           SKY/WX    TMP DP  RH WIND       PRES   REMARKS
BOZEMAN        CLOUDY    33  15  47 CALM      29.94F
DILLON         CLOUDY    23  13  65 S12       29.96F WCI  12
W YELLOWSTONE  CLOUDY    21  19  93 SW14G22   30.01S WCI   8
ENNIS          CLOUDY    27  18  69 S23G29    30.00F WCI  12
THREE FORKS      N/A     32  32 100 SW13      29.94F WCI  22
$$

MTZ009-010-012-014-046-048-049-054-041100-
EAST SLOPES AND CENTRAL MONTANA

CITY           SKY/WX    TMP DP  RH WIND       PRES   REMARKS
CUT BANK       PTCLDY    31  21  66 W20       29.74F WCI  19
GREAT FALLS    CLOUDY    33  21  61 SW18G28   29.81F WCI  22
MALMSTROM AFB  CLOUDY    32  23  68 SW16G28   29.82F WCI  21
HELENA         CLOUDY    35  17  47 CALM      29.89F
AUGUSTA        MOCLDY    26  17  66 S6        29.79F WCI  20
BOWMANS CRNR   MOCLDY    29  21  71 S15       29.79F WCI  18
CHOTEAU          N/A     32  18  55 S9        29.80F WCI  24
CONRAD           N/A     22  18  85 S2        29.82S
FAIRFIELD        N/A     30  19  65 S12       29.79F WCI  20
POWER          MOCLDY    28  19  71 S8        29.78F WCI  19
RAYNESFORD     MOCLDY    35  19  52 SW22G32   29.81F WCI  23
ULM              N/A     33  22  64 S10G23    29.83F WCI  24
$$

MTZ011-013-016-021-045-047-050-051-041100-
NORTH CENTRAL MONTANA

CITY           SKY/WX    TMP DP  RH WIND       PRES   REMARKS
HAVRE          CLOUDY    34  22  61 SW13      29.79F WCI  25
LEWISTOWN      CLEAR     29  19  66 SW18      29.83S WCI  16
N BAR RANCH      N/A     32  12  43 W9G15     29.83S WCI  24
CHINOOK          N/A     28  19  69 CALM      29.79F
DENTON           N/A     32  19  60 SW16G37   29.78F WCI  21
GEYSER           N/A     30  19  63 W13       29.81F WCI  20
GRASS RANGE      N/A     30  20  65 W16       29.80S WCI  19
JUDITH GAP     MOCLDY    29  18  61 W25G36    29.83F WCI  15
ROY              N/A     29  19  68 MISG      29.79F
STANFORD         N/A     33  17  52 W30G37    29.81F WCI  19
WINIFRED       MOCLDY    31  19  62 MISG      29.80F
$$

MTZ017>020-022>027-061-062-041100-
NORTHEAST MONTANA

CITY           SKY/WX    TMP DP  RH WIND       PRES   REMARKS
GLASGOW        CLEAR     26  21  81 W8        29.80F WCI  18
JORDAN           N/A     20  15  81 NW7       29.84F WCI  11
SIDNEY         CLEAR     28  24  85 W12       29.81S WCI  18
WOLF POINT     CLEAR     22  20  92 W6        29.82F WCI  14
PLENTYWOOD       N/A     25  25 100 W7        29.76S WCI  17
POPLAR           N/A     23  21  93 CALM      29.82F
SCOBEY           N/A     22  14  71 CALM      29.77S
$$

MTZ028>42-056>058-041100-
SOUTHCENTRAL AND SOUTHEAST MONTANA

CITY           SKY/WX    TMP DP  RH WIND       PRES   REMARKS
BAKER          CLEAR     23  16  74 W8        29.85R WCI  14
BILLINGS       CLOUDY    31  15  52 SW12      29.90S WCI  22
LIVINGSTON     CLOUDY    34  15  46 SW14      29.91F WCI  25
MILES CITY     CLOUDY    29  20  69 SW9       29.86F WCI  20
BIG TIMBER     MOCLDY    34  14  44 W20G28    29.90F WCI  22
EKALAKA          N/A     29  18  63 W6        29.84S WCI  23
FORSYTH          N/A     34  18  51 SW6       29.88F WCI  29
HARLOWTON        N/A     31  16  54 W17       29.87F WCI  19
LAUREL           N/A     28   7  41 W2        29.89F
ROUNDUP          N/A     30  14  51 S5        29.80S
$$

REGIONAL REPORTS...DAKOTAS

CITY           SKY/WX    TMP DP  RH WIND       PRES   REMARKS
WILLISTON      LGT SNOW  33  30  88 W8        29.78S FOG     WCI  26
MINOT          CLOUDY    29  26  89 W22G28    29.71S WCI  15
DICKINSON      PTCLDY    24  20  84 W16       29.75F WCI  11
BEACH            N/A     25  21  86 W13       29.84S WCI  13
CROSBY         LGT SNOW  27  27 100 NW9       29.76F WCI  17
TIOGA          LGT SNOW  28  28 100 W14       29.75S WCI  17
WATFORD CITY   LGT SNOW  32  32 100 W12       29.77F WCI  23
BISMARCK       PTCLDY    32  29  88 W14       29.76S WCI  22
GRAND FORKS    MIX PCPN  34  31  88 S16       29.77F FOG     WCI  24
FARGO          CLOUDY    35  31  85 S17G28    29.81F WCI  25
BUFFALO SD       N/A     27  21  78 W12       29.78S WCI  17
RAPID CITY     CLEAR     26  20  77 SW7       29.90F WCI  18
$$

REGIONAL REPORTS...WYOMING/IDAHO/WASHINGTON

CITY           SKY/WX    TMP DP  RH WIND       PRES   REMARKS
GILLETTE       CLOUDY    27  21  78 SW10      29.92F WCI  17
SHERIDAN       CLOUDY    29  18  63 CALM      29.90F
BUFFALO WY     CLOUDY    28   9  44 SW7       29.91S WCI  21
CODY           CLOUDY    35  15  44 NW8       29.92S WCI  29
YELLOWSTONE LA   N/A     19  17  92 VRB5      29.98F
IDAHO FALLS    CLOUDY    31  23  72 SW18      30.10F WCI  19
SALMON         CLOUDY    27  18  69 SW3       30.03F
BOISE          CLOUDY    39  28  64 SE8       30.12F
SPOKANE        CLOUDY    37  33  85 SW23G32   29.85F WCI  26
$$

REGIONAL REPORTS...ALBERTA

CITY           SKY/WX    TMP DP  RH WIND       PRES   REMARKS
EDMONTON       CLEAR     19  12  73 W6        29.65F WCI  11
CALGARY        MOCLDY    19  12  73 N3        29.64F
LETHBRIDGE     CLOUDY    28  21  74 SW7       29.69F WCI  21
MEDICINE HAT   CLEAR     25  19  80 S9        29.72F WCI  15
WATERTON GATE    N/A     30  27  86 SW15G21     N/A  WCI  19
CARDSTON         N/A     32  21  64 SW9         N/A  WCI  24
MILK RIVER       N/A     34  21  60 SW15G22     N/A  WCI  24
$$

REGIONAL REPORTS...SASKATCHEWAN

CITY           SKY/WX    TMP DP  RH WIND       PRES   REMARKS
SWIFT CURRENT  CLOUDY    18  14  86 SW12      29.69F WCI   5
REGINA         CLOUDY    27  25  93 W13       29.72F WCI  16
SASKATOON      FOG       21  19  93 S6        29.70F VSB 1/8 WCI  14
CYPRESS HILLS    N/A     27  18  69 W8          N/A  WCI  18
VAL MARIE        N/A     16  12  86 SW3         N/A
ROCKGLEN         N/A     23  19  86 W13         N/A  WCI  11
$$



USA.gov is the U.S. government's official web portal to all federal, state and local government web resources and services.